| time (UTC) | temp C | wind direction | speed KPH | gust KPH | rain 1hr cm | rain 24hr cm | rain mn cm | humidity % | barometer mb |
| 20260901204509 | 18 | 270 | 14.5 | 0.0 | 0.00 | 0.00 | 0.00 | 66 | 1012.9 |
| 20260901203009 | 18 | 270 | 12.9 | 0.0 | 0.00 | 0.00 | 0.00 | 66 | 1012.9 |
| 20260901201510 | 19 | 270 | 12.9 | 0.0 | 0.00 | 0.00 | 0.00 | 63 | 1012.7 |
| 20260901200010 | 19 | 270 | 16.1 | 0.0 | 0.00 | 0.00 | 0.00 | 63 | 1012.7 |
| 20260901194509 | 20 | 270 | 17.7 | 0.0 | 0.00 | 0.00 | 0.00 | 57 | 1012.5 |
| 20260901193009 | 20 | 270 | 17.7 | 0.0 | 0.00 | 0.00 | 0.00 | 57 | 1012.5 |
| 20260901191509 | 20 | 270 | 17.7 | 0.0 | 0.00 | 0.00 | 0.00 | 56 | 1012.2 |
| 20260901190010 | 20 | 270 | 16.1 | 0.0 | 0.00 | 0.00 | 0.00 | 56 | 1012.2 |
| 20260901184509 | 21 | 270 | 16.1 | 0.0 | 0.00 | 0.00 | 0.00 | 55 | 1011.8 |
| 20260901183009 | 21 | 270 | 12.9 | 0.0 | 0.00 | 0.00 | 0.00 | 55 | 1011.8 |
| 20260901181509 | 21 | 270 | 12.9 | 0.0 | 0.00 | 0.00 | 0.00 | 54 | 1011.6 |
| 20260901180010 | 21 | 270 | 11.3 | 0.0 | 0.00 | 0.00 | 0.00 | 54 | 1011.6 |
| 20260901174509 | 21 | 270 | 11.3 | 0.0 | 0.00 | 0.00 | 0.00 | 51 | 1011.4 |
| 20260901173009 | 21 | 270 | 14.5 | 0.0 | 0.00 | 0.00 | 0.00 | 51 | 1011.4 |
| 20260901171509 | 22 | 270 | 14.5 | 0.0 | 0.00 | 0.00 | 0.00 | 48 | 1011.4 |
| 20260901170009 | 22 | 280 | 20.9 | 0.0 | 0.00 | 0.00 | 0.00 | 48 | 1011.4 |
| 20260901164510 | 22 | 280 | 20.9 | 0.0 | 0.00 | 0.00 | 0.00 | 46 | 1011.4 |
| 20260901163009 | 22 | 280 | 19.3 | 0.0 | 0.00 | 0.00 | 0.00 | 46 | 1011.4 |
| 20260901161509 | 23 | 280 | 19.3 | 0.0 | 0.00 | 0.00 | 0.00 | 45 | 1011.3 |
| 20260901160009 | 23 | 280 | 19.3 | 0.0 | 0.00 | 0.00 | 0.00 | 45 | 1011.3 |
| 20260901154509 | 23 | 270 | 17.7 | 0.0 | 0.00 | 0.00 | 0.00 | 49 | 1011.3 |
| 20260901153009 | 23 | 270 | 17.7 | 0.0 | 0.00 | 0.00 | 0.00 | 49 | 1011.3 |
| 20260901151510 | 22 | 270 | 17.7 | 0.0 | 0.00 | 0.00 | 0.00 | 48 | 1011.2 |
| 20260901150009 | 22 | 270 | 19.3 | 0.0 | 0.00 | 0.00 | 0.00 | 48 | 1011.2 |
| 20260901144509 | 23 | 270 | 19.3 | 0.0 | 0.00 | 0.00 | 0.00 | 51 | 1011.3 |
| 20260901143010 | 23 | 270 | 19.3 | 0.0 | 0.00 | 0.00 | 0.00 | 51 | 1011.3 |
| 20260901141509 | 23 | 260 | 16.1 | 0.0 | 0.00 | 0.00 | 0.00 | 50 | 1011.5 |
| 20260901140009 | 23 | 260 | 16.1 | 0.0 | 0.00 | 0.00 | 0.00 | 50 | 1011.5 |
| 20260901134509 | 21 | 260 | 16.1 | 0.0 | 0.00 | 0.00 | 0.00 | 53 | 1011.5 |
| 20260901133009 | 21 | 260 | 19.3 | 0.0 | 0.00 | 0.00 | 0.00 | 53 | 1011.5 |
| 20260901131510 | 21 | 250 | 19.3 | 0.0 | 0.00 | 0.00 | 0.00 | 54 | 1011.6 |
| 20260901130009 | 21 | 250 | 19.3 | 0.0 | 0.00 | 0.00 | 0.00 | 54 | 1011.6 |
| 20260901124509 | 21 | 250 | 19.3 | 0.0 | 0.00 | 0.00 | 0.00 | 56 | 1011.7 |
| 20260901123010 | 21 | 270 | 19.3 | 0.0 | 0.00 | 0.00 | 0.00 | 56 | 1011.7 |
| 20260901121509 | 21 | 270 | 20.9 | 0.0 | 0.00 | 0.00 | 0.00 | 55 | 1011.7 |
| 20260901120009 | 21 | 270 | 20.9 | 0.0 | 0.00 | 0.00 | 0.00 | 55 | 1011.7 |
| 20260901114509 | 21 | 270 | 20.9 | 0.0 | 0.00 | 0.00 | 0.00 | 56 | 1011.7 |
| 20260901113009 | 21 | 280 | 17.7 | 0.0 | 0.00 | 0.00 | 0.00 | 56 | 1011.7 |
| 20260901111509 | 20 | 280 | 17.7 | 0.0 | 0.00 | 0.00 | 0.00 | 60 | 1011.8 |
| 20260901110010 | 20 | 270 | 19.3 | 0.0 | 0.00 | 0.00 | 0.00 | 60 | 1011.8 |
| 20260901104509 | 20 | 270 | 19.3 | 0.0 | 0.00 | 0.00 | 0.00 | 63 | 1011.6 |
| 20260901103010 | 20 | 260 | 14.5 | 0.0 | 0.00 | 0.00 | 0.00 | 63 | 1011.6 |
| 20260901101510 | 18 | 270 | 14.5 | 0.0 | 0.00 | 0.00 | 0.00 | 70 | 1011.5 |
| 20260901100010 | 18 | 270 | 14.5 | 0.0 | 0.00 | 0.00 | 0.00 | 70 | 1011.5 |
| 20260901094509 | 18 | 270 | 14.5 | 0.0 | 0.00 | 0.00 | 0.00 | 73 | 1011.3 |
| 20260901093010 | 18 | 250 | 14.5 | 0.0 | 0.00 | 0.00 | 0.00 | 73 | 1011.3 |
| 20260901091509 | 17 | 250 | 14.5 | 0.0 | 0.00 | 0.00 | 0.00 | 77 | 1011.1 |
| 20260901090009 | 17 | 270 | 17.7 | 0.0 | 0.00 | 0.00 | 0.00 | 77 | 1011.1 |
| 20260901084510 | 16 | 260 | 11.3 | 0.0 | 0.00 | 0.00 | 0.00 | 80 | 1010.8 |
| 20260901083009 | 16 | 260 | 11.3 | 0.0 | 0.00 | 0.00 | 0.00 | 80 | 1010.8 |
| 20260901081509 | 16 | 260 | 11.3 | 0.0 | 0.00 | 0.00 | 0.00 | 81 | 1010.7 |
| 20260901080009 | 16 | 240 | 12.9 | 0.0 | 0.00 | 0.00 | 0.00 | 81 | 1010.7 |
| 20260901074509 | 16 | 240 | 12.9 | 0.0 | 0.00 | 0.00 | 0.00 | 83 | 1010.4 |
| 20260901073009 | 16 | 250 | 11.3 | 0.0 | 0.00 | 0.00 | 0.00 | 83 | 1010.4 |
| 20260901071509 | 16 | 250 | 11.3 | 0.0 | 0.00 | 0.00 | 0.00 | 83 | 1010.1 |
| 20260901070010 | 16 | 250 | 14.5 | 0.0 | 0.00 | 0.00 | 0.00 | 83 | 1010.1 |
| 20260901064509 | 16 | 250 | 14.5 | 0.0 | 0.00 | 0.00 | 0.00 | 84 | 1009.8 |
| 20260901063009 | 16 | 260 | 12.9 | 0.0 | 0.00 | 0.00 | 0.00 | 84 | 1009.8 |
| 20260901061510 | 15 | 260 | 12.9 | 0.0 | 0.00 | 0.00 | 0.00 | 86 | 1009.6 |
| 20260901060010 | 15 | 250 | 11.3 | 0.0 | 0.00 | 0.00 | 0.00 | 86 | 1009.6 |
| 20260901054509 | 15 | 260 | 9.7 | 0.0 | 0.00 | 0.00 | 0.00 | 89 | 1009.2 |
| 20260901053010 | 15 | 260 | 9.7 | 0.0 | 0.00 | 0.00 | 0.00 | 89 | 1009.2 |
| 20260901051509 | 15 | 260 | 11.3 | 0.0 | 0.00 | 0.00 | 0.00 | 89 | 1008.9 |
| 20260901050010 | 15 | 260 | 11.3 | 0.0 | 0.00 | 0.00 | 0.00 | 89 | 1008.9 |
| 20260901044511 | 15 | 240 | 9.7 | 0.0 | 0.00 | 0.00 | 0.00 | 91 | 1008.6 |
| 20260901043009 | 15 | 240 | 9.7 | 0.0 | 0.00 | 0.00 | 0.00 | 91 | 1008.6 |
| 20260901041510 | 15 | 250 | 9.7 | 0.0 | 0.00 | 0.00 | 0.00 | 90 | 1008.4 |
| 20260901040010 | 15 | 250 | 9.7 | 0.0 | 0.00 | 0.00 | 0.00 | 90 | 1008.4 |
| 20260901034510 | 15 | 230 | 11.3 | 0.0 | 0.00 | 0.00 | 0.00 | 90 | 1008.3 |
| 20260901033010 | 15 | 230 | 11.3 | 0.0 | 0.00 | 0.00 | 0.00 | 90 | 1008.3 |
| 20260901031509 | 15 | 230 | 12.9 | 0.0 | 0.00 | 0.00 | 0.00 | 90 | 1008.1 |
| 20260901030008 | 15 | 230 | 12.9 | 0.0 | 0.00 | 0.00 | 0.00 | 90 | 1008.1 |